Time,TemperatureF,DewpointF,PressureIn,WindDirection,WindDirectionDegrees,WindSpeedMPH,WindSpeedGustMPH,Humidity,HourlyPrecipIn,Conditions,Clouds,dailyrainin,SoftwareType,DateUTC
2013-02-02 00:00:00,12.8,6.1,30.29,SW,226,7.0,7.0,74,0.00,,,0.00,Wunderground v.1.15,2013-02-02 05:00:00,
2013-02-02 00:05:00,12.6,6.2,30.29,SSW,204,7.0,7.0,75,0.00,,,0.00,Wunderground v.1.15,2013-02-02 05:05:00,
2013-02-02 00:10:00,12.6,6.2,30.29,SSW,205,6.0,6.0,75,0.00,,,0.00,Wunderground v.1.15,2013-02-02 05:10:00,
2013-02-02 00:20:00,12.5,6.1,30.29,WSW,255,7.0,7.0,75,0.00,,,0.00,Wunderground v.1.15,2013-02-02 05:20:00,
2013-02-02 00:25:00,12.4,6.0,30.29,SSW,207,7.0,7.0,75,0.00,,,0.00,Wunderground v.1.15,2013-02-02 05:25:00,
2013-02-02 00:30:00,12.2,5.8,30.29,SW,236,7.0,7.0,75,0.00,,,0.00,Wunderground v.1.15,2013-02-02 05:30:00,
2013-02-02 00:38:00,11.8,5.4,30.28,SSW,198,5.0,7.0,75,0.00,,,0.00,Wunderground v.1.15,2013-02-02 05:38:00,
2013-02-02 00:45:00,11.6,5.5,30.28,SW,225,6.0,6.0,76,0.00,,,0.00,Wunderground v.1.15,2013-02-02 05:45:00,
2013-02-02 00:50:00,11.5,5.4,30.28,SW,221,6.0,6.0,76,0.00,,,0.00,Wunderground v.1.15,2013-02-02 05:50:00,
2013-02-02 00:55:00,11.3,5.2,30.28,SW,218,6.0,6.0,76,0.00,,,0.00,Wunderground v.1.15,2013-02-02 05:55:00,
2013-02-02 01:00:00,11.1,5.0,30.28,SSW,203,5.0,5.0,76,0.00,,,0.00,Wunderground v.1.15,2013-02-02 06:00:00,
2013-02-02 01:10:00,10.9,5.1,30.28,SSW,198,4.0,4.0,77,0.00,,,0.00,Wunderground v.1.15,2013-02-02 06:10:00,
2013-02-02 01:15:00,10.8,5.0,30.28,SW,217,4.0,4.0,77,0.00,,,0.00,Wunderground v.1.15,2013-02-02 06:15:00,
2013-02-02 01:20:00,10.6,4.8,30.27,SSW,207,4.0,4.0,77,0.00,,,0.00,Wunderground v.1.15,2013-02-02 06:20:00,
2013-02-02 01:30:00,10.3,4.8,30.27,SSW,196,4.0,6.0,78,0.00,,,0.00,Wunderground v.1.15,2013-02-02 06:30:00,
2013-02-02 01:35:00,10.3,4.8,30.27,SSW,197,4.0,6.0,78,0.00,,,0.00,Wunderground v.1.15,2013-02-02 06:35:00,
2013-02-02 01:40:00,10.2,4.7,30.27,SSW,196,4.0,4.0,78,0.00,,,0.00,Wunderground v.1.15,2013-02-02 06:40:00,
2013-02-02 01:50:00,10.0,4.5,30.27,WSW,248,4.0,4.0,78,0.00,,,0.00,Wunderground v.1.15,2013-02-02 06:50:00,
2013-02-02 01:55:00,9.7,4.2,30.26,SSW,210,3.0,4.0,78,0.00,,,0.00,Wunderground v.1.15,2013-02-02 06:55:00,
2013-02-02 02:00:00,9.4,4.2,30.26,SSW,204,2.0,2.0,79,0.00,,,0.00,Wunderground v.1.15,2013-02-02 07:00:00,
2013-02-02 02:10:00,8.8,3.6,30.26,SW,215,1.0,1.0,79,0.00,,,0.00,Wunderground v.1.15,2013-02-02 07:10:00,
2013-02-02 02:15:00,8.4,3.5,30.25,SW,225,1.0,1.0,80,0.00,,,0.00,Wunderground v.1.15,2013-02-02 07:15:00,
2013-02-02 02:20:00,8.0,3.4,30.25,SW,225,0.0,0.0,81,0.00,,,0.00,Wunderground v.1.15,2013-02-02 07:20:00,
2013-02-02 02:30:00,7.5,3.2,30.25,SW,227,0.0,1.0,82,0.00,,,0.00,Wunderground v.1.15,2013-02-02 07:30:00,
2013-02-02 02:35:00,7.4,3.1,30.26,SW,217,1.0,1.0,82,0.00,,,0.00,Wunderground v.1.15,2013-02-02 07:35:00,
2013-02-02 02:40:00,7.4,3.3,30.25,SW,232,1.0,2.0,83,0.00,,,0.00,Wunderground v.1.15,2013-02-02 07:40:00,
2013-02-02 02:45:00,7.4,3.3,30.25,SW,221,1.0,2.0,83,0.00,,,0.00,Wunderground v.1.15,2013-02-02 07:45:00,
2013-02-02 02:50:00,7.4,3.3,30.25,SW,221,1.0,1.0,83,0.00,,,0.00,Wunderground v.1.15,2013-02-02 07:50:00,
2013-02-02 02:55:00,7.3,3.2,30.25,SW,217,1.0,1.0,83,0.00,,,0.00,Wunderground v.1.15,2013-02-02 07:55:00,
2013-02-02 03:10:00,6.8,2.7,30.25,SSW,212,0.0,0.0,83,0.00,,,0.00,Wunderground v.1.15,2013-02-02 08:10:00,
2013-02-02 03:20:00,6.3,2.2,30.24,SSW,212,0.0,0.0,83,0.00,,,0.00,Wunderground v.1.15,2013-02-02 08:20:00,
2013-02-02 03:25:00,6.2,2.4,30.24,SSW,212,0.0,0.0,84,0.00,,,0.00,Wunderground v.1.15,2013-02-02 08:25:00,
2013-02-02 03:30:00,6.1,2.3,30.24,SSW,212,0.0,0.0,84,0.00,,,0.00,Wunderground v.1.15,2013-02-02 08:30:00,
2013-02-02 03:35:00,6.0,2.2,30.24,SSW,212,0.0,0.0,84,0.00,,,0.00,Wunderground v.1.15,2013-02-02 08:35:00,
2013-02-02 03:40:00,5.8,2.3,30.24,SSW,212,0.0,0.0,85,0.00,,,0.00,Wunderground v.1.15,2013-02-02 08:40:00,
2013-02-02 03:50:00,5.8,2.3,30.24,SSW,212,0.0,0.0,85,0.00,,,0.00,Wunderground v.1.15,2013-02-02 08:50:00,
2013-02-02 03:55:00,6.0,2.7,30.23,SSW,212,0.0,0.0,86,0.00,,,0.00,Wunderground v.1.15,2013-02-02 08:55:00,
2013-02-02 04:00:00,6.2,3.2,30.23,SSW,212,0.0,0.0,87,0.00,,,0.00,Wunderground v.1.15,2013-02-02 09:00:00,
2013-02-02 04:10:00,7.4,4.8,30.23,SSW,207,1.0,2.0,89,0.00,,,0.00,Wunderground v.1.15,2013-02-02 09:10:00,
2013-02-02 04:15:00,8.4,5.8,30.22,SSW,205,2.0,5.0,89,0.00,,,0.00,Wunderground v.1.15,2013-02-02 09:15:00,
2013-02-02 04:20:00,9.2,6.4,30.22,SSW,194,3.0,5.0,88,0.00,,,0.00,Wunderground v.1.15,2013-02-02 09:20:00,
2013-02-02 04:30:00,10.1,6.5,30.22,SSW,197,5.0,5.0,85,0.00,,,0.00,Wunderground v.1.15,2013-02-02 09:30:00,
2013-02-02 04:40:00,10.5,6.6,30.21,SSW,204,4.0,4.0,84,0.00,,,0.00,Wunderground v.1.15,2013-02-02 09:40:00,
2013-02-02 04:45:00,10.7,6.6,30.21,SSW,204,4.0,4.0,83,0.00,,,0.00,Wunderground v.1.15,2013-02-02 09:45:00,
2013-02-02 04:50:00,10.8,6.7,30.21,South,188,4.0,5.0,83,0.00,,,0.00,Wunderground v.1.15,2013-02-02 09:50:00,
2013-02-02 04:55:00,11.0,6.8,30.21,South,188,5.0,5.0,83,0.00,,,0.00,Wunderground v.1.15,2013-02-02 09:55:00,
2013-02-02 05:00:00,11.1,6.7,30.21,SSW,194,5.0,5.0,82,0.00,,,0.00,Wunderground v.1.15,2013-02-02 10:00:00,
2013-02-02 05:10:00,11.4,7.0,30.21,SW,214,5.0,6.0,82,0.00,,,0.00,Wunderground v.1.15,2013-02-02 10:10:00,
2013-02-02 05:15:00,11.5,7.1,30.21,SSW,201,5.0,6.0,82,0.00,,,0.00,Wunderground v.1.15,2013-02-02 10:15:00,
2013-02-02 05:20:00,11.7,7.0,30.21,SSW,194,6.0,6.0,81,0.00,,,0.00,Wunderground v.1.15,2013-02-02 10:20:00,
2013-02-02 05:25:00,11.7,7.0,30.21,South,186,6.0,6.0,81,0.00,,,0.00,Wunderground v.1.15,2013-02-02 10:25:00,
2013-02-02 05:30:00,11.8,7.1,30.20,SW,214,5.0,7.0,81,0.00,,,0.00,Wunderground v.1.15,2013-02-02 10:30:00,
2013-02-02 05:40:00,11.9,6.9,30.21,SW,222,6.0,6.0,80,0.00,,,0.00,Wunderground v.1.15,2013-02-02 10:40:00,
2013-02-02 05:45:00,11.9,7.2,30.21,SW,235,7.0,7.0,81,0.00,,,0.00,Wunderground v.1.15,2013-02-02 10:45:00,
2013-02-02 05:50:00,12.0,7.3,30.21,SW,226,6.0,7.0,81,0.00,,,0.00,Wunderground v.1.15,2013-02-02 10:50:00,
2013-02-02 06:00:00,12.0,7.0,30.21,West,281,7.0,7.0,80,0.00,,,0.00,Wunderground v.1.15,2013-02-02 11:00:00,
2013-02-02 06:10:00,11.9,7.2,30.20,South,184,7.0,9.0,81,0.00,,,0.00,Wunderground v.1.15,2013-02-02 11:10:00,
2013-02-02 06:15:00,12.0,7.6,30.20,SSW,207,7.0,9.0,82,0.00,,,0.00,Wunderground v.1.15,2013-02-02 11:15:00,
2013-02-02 06:20:00,12.0,7.6,30.20,SSW,194,7.0,7.0,82,0.00,,,0.00,Wunderground v.1.15,2013-02-02 11:20:00,
2013-02-02 06:25:00,12.1,7.9,30.20,SSW,200,7.0,7.0,83,0.00,,,0.00,Wunderground v.1.15,2013-02-02 11:25:00,
2013-02-02 06:35:00,12.1,8.2,30.19,SSW,193,8.0,10.0,84,0.00,,,0.00,Wunderground v.1.15,2013-02-02 11:35:00,
2013-02-02 06:40:00,12.1,8.2,30.19,SSW,203,7.0,7.0,84,0.00,,,0.00,Wunderground v.1.15,2013-02-02 11:40:00,
2013-02-02 06:45:00,12.2,8.6,30.19,SSW,198,7.0,7.0,85,0.00,,,0.00,Wunderground v.1.15,2013-02-02 11:45:00,
2013-02-02 06:50:00,12.1,8.5,30.19,South,173,7.0,7.0,85,0.00,,,0.00,Wunderground v.1.15,2013-02-02 11:50:00,
2013-02-02 06:55:00,12.2,8.6,30.19,SSW,194,7.0,7.0,85,0.00,,,0.00,Wunderground v.1.15,2013-02-02 11:55:00,
2013-02-02 07:00:00,12.2,8.6,30.19,South,187,7.0,7.0,85,0.00,,,0.00,Wunderground v.1.15,2013-02-02 12:00:00,
2013-02-02 07:10:00,12.1,8.7,30.18,SSW,200,7.0,8.0,86,0.00,,,0.00,Wunderground v.1.15,2013-02-02 12:10:00,
2013-02-02 07:15:00,12.1,8.7,30.18,SSW,192,7.0,8.0,86,0.00,,,0.00,Wunderground v.1.15,2013-02-02 12:15:00,
2013-02-02 07:20:00,12.1,8.7,30.18,SSW,198,6.0,9.0,86,0.00,,,0.00,Wunderground v.1.15,2013-02-02 12:20:00,
2013-02-02 07:25:00,12.2,8.8,30.18,SSW,194,7.0,9.0,86,0.00,,,0.00,Wunderground v.1.15,2013-02-02 12:25:00,
2013-02-02 09:30:00,15.0,10.5,30.13,SSW,194,9.0,9.0,82,0.00,,,0.00,Wunderground v.1.15,2013-02-02 14:30:00,
2013-02-02 09:40:00,15.3,10.8,30.12,SSW,200,8.0,10.0,82,0.00,,,0.00,Wunderground v.1.15,2013-02-02 14:40:00,
2013-02-02 09:45:00,15.5,11.0,30.12,SSW,201,7.0,11.0,82,0.00,,,0.00,Wunderground v.1.15,2013-02-02 14:45:00,
2013-02-02 09:50:00,15.6,11.4,30.12,SSW,212,8.0,10.0,83,0.00,,,0.00,Wunderground v.1.15,2013-02-02 14:50:00,
2013-02-02 09:55:00,15.8,11.8,30.11,South,171,9.0,10.0,84,0.00,,,0.00,Wunderground v.1.15,2013-02-02 14:55:00,
2013-02-02 10:00:00,15.9,11.9,30.11,SW,214,10.0,10.0,84,0.00,,,0.00,Wunderground v.1.15,2013-02-02 15:00:00,
2013-02-02 10:10:00,16.1,12.7,30.10,SSW,198,10.0,10.0,86,0.00,,,0.00,Wunderground v.1.15,2013-02-02 15:10:00,
2013-02-02 10:15:00,16.3,12.8,30.10,SSW,203,10.0,10.0,86,0.00,,,0.00,Wunderground v.1.15,2013-02-02 15:15:00,
2013-02-02 10:20:00,16.4,13.2,30.10,SSW,212,10.0,10.0,87,0.00,,,0.00,Wunderground v.1.15,2013-02-02 15:20:00,
2013-02-02 10:25:00,16.7,13.5,30.09,South,191,9.0,10.0,87,0.00,,,0.00,Wunderground v.1.15,2013-02-02 15:25:00,
2013-02-02 10:30:00,16.8,13.3,30.09,SSW,210,9.0,12.0,86,0.00,,,0.00,Wunderground v.1.15,2013-02-02 15:30:00,
2013-02-02 10:35:00,17.1,13.6,30.09,SSW,211,10.0,12.0,86,0.00,,,0.00,Wunderground v.1.15,2013-02-02 15:35:00,
2013-02-02 10:45:00,17.6,13.9,30.09,SSW,205,9.0,10.0,85,0.00,,,0.00,Wunderground v.1.15,2013-02-02 15:45:00,
2013-02-02 10:50:00,17.7,14.0,30.09,South,188,9.0,12.0,85,0.00,,,0.00,Wunderground v.1.15,2013-02-02 15:50:00,
2013-02-02 10:55:00,17.8,14.1,30.08,SSW,203,10.0,12.0,85,0.00,,,0.00,Wunderground v.1.15,2013-02-02 15:55:00,
2013-02-02 11:00:00,18.0,14.5,30.08,SSW,194,10.0,10.0,86,0.00,,,0.00,Wunderground v.1.15,2013-02-02 16:00:00,
2013-02-02 11:10:00,18.4,14.9,30.08,SW,217,10.0,10.0,86,0.00,,,0.00,Wunderground v.1.15,2013-02-02 16:10:00,
2013-02-02 11:20:00,18.9,15.1,30.07,SSW,194,9.0,9.0,85,0.00,,,0.00,Wunderground v.1.15,2013-02-02 16:20:00,
2013-02-02 11:25:00,19.2,15.4,30.07,SSW,208,9.0,9.0,85,0.00,,,0.00,Wunderground v.1.15,2013-02-02 16:25:00,
2013-02-02 11:35:00,19.6,15.6,30.06,SSW,212,10.0,10.0,84,0.00,,,0.00,Wunderground v.1.15,2013-02-02 16:35:00,
2013-02-02 11:40:00,19.7,15.9,30.06,South,188,11.0,11.0,85,0.00,,,0.00,Wunderground v.1.15,2013-02-02 16:40:00,
2013-02-02 11:45:00,19.8,16.0,30.06,SW,231,11.0,11.0,85,0.00,,,0.00,Wunderground v.1.15,2013-02-02 16:45:00,
2013-02-02 11:55:00,20.1,16.0,30.05,SW,225,11.0,12.0,84,0.00,,,0.00,Wunderground v.1.15,2013-02-02 16:55:00,
2013-02-02 12:00:00,20.2,16.4,30.05,SSW,196,12.0,12.0,85,0.00,,,0.00,Wunderground v.1.15,2013-02-02 17:00:00,
2013-02-02 12:10:00,20.3,16.8,30.04,SW,217,11.0,11.0,86,0.00,,,0.00,Wunderground v.1.15,2013-02-02 17:10:00,
2013-02-02 12:15:00,20.4,16.9,30.04,SW,214,10.0,11.0,86,0.00,,,0.00,Wunderground v.1.15,2013-02-02 17:15:00,
2013-02-02 12:20:00,20.7,17.4,30.04,SSW,197,9.0,10.0,87,0.00,,,0.00,Wunderground v.1.15,2013-02-02 17:20:00,
2013-02-02 12:25:00,20.9,17.4,30.04,SW,225,9.0,10.0,86,0.00,,,0.00,Wunderground v.1.15,2013-02-02 17:25:00,
2013-02-02 12:30:00,21.0,17.5,30.03,SSE,167,9.0,15.0,86,0.00,,,0.00,Wunderground v.1.15,2013-02-02 17:30:00,
2013-02-02 12:35:00,21.0,17.5,30.03,SW,229,9.0,15.0,86,0.00,,,0.00,Wunderground v.1.15,2013-02-02 17:35:00,
2013-02-02 12:45:00,21.1,17.6,30.02,SSW,194,10.0,11.0,86,0.00,,,0.00,Wunderground v.1.15,2013-02-02 17:45:00,
2013-02-02 12:50:00,21.4,17.9,30.01,South,186,9.0,9.0,86,0.00,,,0.00,Wunderground v.1.15,2013-02-02 17:50:00,
2013-02-02 12:55:00,21.6,18.1,30.01,SSW,207,9.0,13.0,86,0.00,,,0.00,Wunderground v.1.15,2013-02-02 17:55:00,
2013-02-02 13:00:00,21.7,18.2,30.01,South,187,10.0,10.0,86,0.00,,,0.00,Wunderground v.1.15,2013-02-02 18:00:00,
2013-02-02 13:10:00,21.9,18.1,30.00,SSW,207,11.0,11.0,85,0.00,,,0.00,Wunderground v.1.15,2013-02-02 18:10:00,
2013-02-02 13:15:00,22.1,18.6,30.00,South,190,10.0,11.0,86,0.00,,,0.00,Wunderground v.1.15,2013-02-02 18:15:00,
2013-02-02 13:20:00,22.3,18.7,29.99,SW,219,9.0,9.0,86,0.00,,,0.00,Wunderground v.1.15,2013-02-02 18:20:00,
2013-02-02 13:25:00,22.4,18.6,29.99,SSW,197,9.0,9.0,85,0.00,,,0.00,Wunderground v.1.15,2013-02-02 18:25:00,
2013-02-02 13:30:00,22.5,18.7,29.99,SSW,201,9.0,11.0,85,0.00,,,0.00,Wunderground v.1.15,2013-02-02 18:30:00,
2013-02-02 13:35:00,22.5,18.7,29.99,SSW,196,10.0,11.0,85,0.00,,,0.00,Wunderground v.1.15,2013-02-02 18:35:00,
2013-02-02 13:40:00,22.7,18.9,29.99,SSW,200,10.0,10.0,85,0.00,,,0.00,Wunderground v.1.15,2013-02-02 18:40:00,
2013-02-02 13:45:00,22.8,19.0,29.98,SSW,210,9.0,10.0,85,0.00,,,0.00,Wunderground v.1.15,2013-02-02 18:45:00,
2013-02-02 13:50:00,22.9,19.1,29.98,South,189,9.0,11.0,85,0.00,,,0.00,Wunderground v.1.15,2013-02-02 18:50:00,
2013-02-02 14:00:00,22.9,19.1,29.97,SSW,197,10.0,10.0,85,0.00,,,0.00,Wunderground v.1.15,2013-02-02 19:00:00,
2013-02-02 14:10:00,22.9,19.3,29.96,SSW,207,9.0,10.0,86,0.00,,,0.00,Wunderground v.1.15,2013-02-02 19:10:00,
2013-02-02 14:15:00,22.8,19.2,29.96,SSW,192,9.0,10.0,86,0.00,,,0.00,Wunderground v.1.15,2013-02-02 19:15:00,
2013-02-02 14:25:00,22.8,19.2,29.96,SSW,203,9.0,9.0,86,0.00,,,0.00,Wunderground v.1.15,2013-02-02 19:25:00,
2013-02-02 14:30:00,22.8,19.2,29.96,SW,215,9.0,9.0,86,0.00,,,0.00,Wunderground v.1.15,2013-02-02 19:30:00,
2013-02-02 14:35:00,23.0,19.7,29.96,SW,217,9.0,9.0,87,0.00,,,0.00,Wunderground v.1.15,2013-02-02 19:35:00,
2013-02-02 14:45:00,23.2,19.9,29.96,SSW,193,8.0,10.0,87,0.00,,,0.00,Wunderground v.1.15,2013-02-02 19:45:00,
2013-02-02 14:50:00,23.3,20.0,29.96,SSW,208,7.0,7.0,87,0.00,,,0.00,Wunderground v.1.15,2013-02-02 19:50:00,
2013-02-02 14:55:00,23.5,20.2,29.96,SSW,193,7.0,7.0,87,0.00,,,0.00,Wunderground v.1.15,2013-02-02 19:55:00,
2013-02-02 15:00:00,23.5,20.2,29.96,South,191,8.0,8.0,87,0.00,,,0.00,Wunderground v.1.15,2013-02-02 20:00:00,
2013-02-02 15:10:00,23.5,20.2,29.96,SW,224,7.0,7.0,87,0.00,,,0.00,Wunderground v.1.15,2013-02-02 20:10:00,
2013-02-02 15:15:00,23.6,20.6,29.95,SSW,193,7.0,7.0,88,0.00,,,0.00,Wunderground v.1.15,2013-02-02 20:15:00,
2013-02-02 15:20:00,23.6,20.6,29.96,SSW,208,7.0,7.0,88,0.00,,,0.00,Wunderground v.1.15,2013-02-02 20:20:00,
2013-02-02 15:25:00,23.6,20.6,29.95,SSW,207,7.0,9.0,88,0.00,,,0.00,Wunderground v.1.15,2013-02-02 20:25:00,
2013-02-02 15:30:00,23.6,20.3,29.96,South,187,7.0,7.0,87,0.00,,,0.00,Wunderground v.1.15,2013-02-02 20:30:00,
2013-02-02 15:35:00,23.6,20.6,29.95,SSW,198,7.0,12.0,88,0.00,,,0.00,Wunderground v.1.15,2013-02-02 20:35:00,
2013-02-02 15:40:00,23.5,20.5,29.95,SSW,211,7.0,7.0,88,0.00,,,0.00,Wunderground v.1.15,2013-02-02 20:40:00,
2013-02-02 15:50:00,23.4,20.4,29.95,SSW,204,6.0,7.0,88,0.00,,,0.00,Wunderground v.1.15,2013-02-02 20:50:00,
2013-02-02 15:55:00,23.4,20.4,29.95,SSW,211,6.0,8.0,88,0.00,,,0.00,Wunderground v.1.15,2013-02-02 20:55:00,
2013-02-02 16:00:00,23.4,20.6,29.95,SW,233,6.0,6.0,89,0.00,,,0.00,Wunderground v.1.15,2013-02-02 21:00:00,
2013-02-02 16:10:00,23.3,20.5,29.95,SW,229,6.0,6.0,89,0.00,,,0.00,Wunderground v.1.15,2013-02-02 21:10:00,
2013-02-02 16:15:00,23.3,20.5,29.95,SW,214,6.0,6.0,89,0.00,,,0.00,Wunderground v.1.15,2013-02-02 21:15:00,
2013-02-02 16:20:00,23.3,20.5,29.95,SW,221,6.0,7.0,89,0.00,,,0.00,Wunderground v.1.15,2013-02-02 21:20:00,
2013-02-02 16:25:00,23.3,20.5,29.95,SSW,207,6.0,7.0,89,0.00,,,0.00,Wunderground v.1.15,2013-02-02 21:25:00,
2013-02-02 16:35:00,23.3,20.8,29.95,SSW,210,5.0,5.0,90,0.00,,,0.00,Wunderground v.1.15,2013-02-02 21:35:00,
2013-02-02 16:40:00,23.3,20.8,29.95,SW,214,4.0,6.0,90,0.00,,,0.00,Wunderground v.1.15,2013-02-02 21:40:00,
2013-02-02 16:45:00,23.2,20.7,29.95,SSW,210,4.0,6.0,90,0.00,,,0.00,Wunderground v.1.15,2013-02-02 21:45:00,
2013-02-02 16:50:00,23.2,20.7,29.95,SW,225,4.0,4.0,90,0.00,,,0.00,Wunderground v.1.15,2013-02-02 21:50:00,
2013-02-02 16:55:00,23.2,20.7,29.95,SW,217,4.0,4.0,90,0.00,,,0.00,Wunderground v.1.15,2013-02-02 21:55:00,
2013-02-02 17:00:00,23.1,20.6,29.95,SSW,203,3.0,5.0,90,0.00,,,0.00,Wunderground v.1.15,2013-02-02 22:00:00,
2013-02-02 17:05:00,23.2,21.0,29.95,SSW,203,4.0,-999.0,91,0.00,,,0.00,Wunderground v.1.15,2013-02-02 22:05:00,
2013-02-02 17:10:00,23.1,20.9,29.95,SSW,203,3.0,-999.0,91,0.00,,,0.00,Wunderground v.1.15,2013-02-02 22:10:00,
2013-02-02 17:15:00,23.1,20.9,29.96,SSW,203,3.0,-999.0,91,0.00,,,0.00,Wunderground v.1.15,2013-02-02 22:15:00,
2013-02-02 17:20:00,23.1,20.9,29.96,SSW,203,3.0,-999.0,91,0.00,,,0.00,Wunderground v.1.15,2013-02-02 22:20:00,
2013-02-02 17:25:00,23.1,20.9,29.96,SSW,203,3.0,-999.0,91,0.00,,,0.00,Wunderground v.1.15,2013-02-02 22:25:00,
2013-02-02 17:30:00,23.2,21.0,29.96,SSW,203,3.0,-999.0,91,0.00,,,0.00,Wunderground v.1.15,2013-02-02 22:30:00,
2013-02-02 17:35:00,23.2,21.0,29.96,SSW,203,3.0,-999.0,91,0.00,,,0.00,Wunderground v.1.15,2013-02-02 22:35:00,
2013-02-02 17:40:00,23.2,21.0,29.95,SSW,203,3.0,-999.0,91,0.00,,,0.00,Wunderground v.1.15,2013-02-02 22:40:00,
2013-02-02 17:45:00,23.2,21.0,29.95,SSW,203,3.0,-999.0,91,0.00,,,0.00,Wunderground v.1.15,2013-02-02 22:45:00,
2013-02-02 17:50:00,23.2,21.0,29.95,SSW,203,3.0,-999.0,91,0.00,,,0.00,Wunderground v.1.15,2013-02-02 22:50:00,
2013-02-02 17:55:00,23.2,21.0,29.95,SSW,203,3.0,-999.0,91,0.00,,,0.00,Wunderground v.1.15,2013-02-02 22:55:00,
2013-02-02 18:00:00,23.2,21.0,29.95,SSW,203,3.0,-999.0,91,0.00,,,0.00,Wunderground v.1.15,2013-02-02 23:00:00,
2013-02-02 18:05:00,23.2,21.0,29.95,SSW,203,3.0,-999.0,91,0.00,,,0.00,Wunderground v.1.15,2013-02-02 23:05:00,
2013-02-02 18:10:00,23.1,20.9,29.95,SSW,203,3.0,-999.0,91,0.00,,,0.00,Wunderground v.1.15,2013-02-02 23:10:00,
2013-02-02 18:15:00,23.1,20.9,29.95,SSW,203,2.0,-999.0,91,0.00,,,0.00,Wunderground v.1.15,2013-02-02 23:15:00,
2013-02-02 18:20:00,23.0,20.8,29.95,SSW,203,2.0,-999.0,91,0.00,,,0.00,Wunderground v.1.15,2013-02-02 23:20:00,
2013-02-02 18:25:00,22.9,20.9,29.95,SSW,203,2.0,-999.0,92,0.00,,,0.00,Wunderground v.1.15,2013-02-02 23:25:00,
2013-02-02 18:30:00,22.9,20.9,29.96,SSW,203,2.0,-999.0,92,0.00,,,0.00,Wunderground v.1.15,2013-02-02 23:30:00,
2013-02-02 18:35:00,22.9,20.9,29.96,SSW,203,2.0,-999.0,92,0.00,,,0.00,Wunderground v.1.15,2013-02-02 23:35:00,
2013-02-02 18:40:00,22.8,20.8,29.96,SSW,203,2.0,-999.0,92,0.00,,,0.00,Wunderground v.1.15,2013-02-02 23:40:00,
2013-02-02 18:45:00,22.8,20.8,29.96,SSW,203,2.0,-999.0,92,0.00,,,0.00,Wunderground v.1.15,2013-02-02 23:45:00,
2013-02-02 18:50:00,22.8,20.8,29.96,SSW,203,1.0,-999.0,92,0.00,,,0.00,Wunderground v.1.15,2013-02-02 23:50:00,
2013-02-02 18:55:00,22.7,20.7,29.96,SSW,203,2.0,-999.0,92,0.00,,,0.00,Wunderground v.1.15,2013-02-02 23:55:00,
2013-02-02 19:00:00,22.7,20.7,29.96,SSW,203,1.0,-999.0,92,0.00,,,0.00,Wunderground v.1.15,2013-02-03 00:00:00,
2013-02-02 19:05:00,22.7,20.7,29.96,SSW,203,2.0,-999.0,92,0.00,,,0.00,Wunderground v.1.15,2013-02-03 00:05:00,
2013-02-02 19:10:00,22.7,20.7,29.96,SSW,203,2.0,-999.0,92,0.00,,,0.00,Wunderground v.1.15,2013-02-03 00:10:00,
2013-02-02 19:15:00,22.8,21.1,29.96,SSW,203,3.0,-999.0,93,0.00,,,0.00,Wunderground v.1.15,2013-02-03 00:15:00,
2013-02-02 19:20:00,22.8,21.1,29.96,SSW,203,2.0,-999.0,93,0.00,,,0.00,Wunderground v.1.15,2013-02-03 00:20:00,
2013-02-02 19:25:00,22.9,20.9,29.96,SSW,203,2.0,-999.0,92,0.00,,,0.00,Wunderground v.1.15,2013-02-03 00:25:00,
2013-02-02 19:30:00,22.9,20.9,29.96,SSW,203,3.0,-999.0,92,0.00,,,0.00,Wunderground v.1.15,2013-02-03 00:30:00,
2013-02-02 19:35:00,22.9,20.9,29.96,SSW,203,3.0,-999.0,92,0.00,,,0.00,Wunderground v.1.15,2013-02-03 00:35:00,
2013-02-02 19:40:00,22.9,20.9,29.96,SSW,203,3.0,-999.0,92,0.00,,,0.00,Wunderground v.1.15,2013-02-03 00:40:00,
2013-02-02 19:45:00,22.9,20.9,29.96,SSW,203,2.0,-999.0,92,0.00,,,0.00,Wunderground v.1.15,2013-02-03 00:45:00,
2013-02-02 19:50:00,22.9,20.9,29.96,SSW,203,2.0,-999.0,92,0.00,,,0.00,Wunderground v.1.15,2013-02-03 00:50:00,
2013-02-02 19:55:00,22.9,20.9,29.96,SSW,203,2.0,-999.0,92,0.00,,,0.00,Wunderground v.1.15,2013-02-03 00:55:00,
2013-02-02 20:00:00,22.9,20.9,29.96,South,180,2.0,-999.0,92,0.00,,,0.00,Wunderground v.1.15,2013-02-03 01:00:00,
2013-02-02 20:05:00,22.9,20.9,29.96,SW,225,1.0,-999.0,92,0.00,,,0.00,Wunderground v.1.15,2013-02-03 01:05:00,
2013-02-02 20:10:00,22.9,20.9,29.96,SSW,203,1.0,-999.0,92,0.00,,,0.00,Wunderground v.1.15,2013-02-03 01:10:00,
2013-02-02 20:15:00,23.0,21.0,29.97,SW,225,2.0,-999.0,92,0.00,,,0.00,Wunderground v.1.15,2013-02-03 01:15:00,
2013-02-02 20:20:00,23.0,21.0,29.97,SSW,203,2.0,-999.0,92,0.00,,,0.00,Wunderground v.1.15,2013-02-03 01:20:00,
2013-02-02 20:25:00,23.0,21.0,29.97,SSW,203,2.0,-999.0,92,0.00,,,0.00,Wunderground v.1.15,2013-02-03 01:25:00,
2013-02-02 20:30:00,22.9,20.9,29.97,SSW,203,2.0,-999.0,92,0.00,,,0.00,Wunderground v.1.15,2013-02-03 01:30:00,
2013-02-02 20:35:00,23.0,21.0,29.97,SSW,203,3.0,-999.0,92,0.00,,,0.00,Wunderground v.1.15,2013-02-03 01:35:00,
2013-02-02 20:40:00,23.1,21.1,29.97,SSW,203,3.0,-999.0,92,0.00,,,0.00,Wunderground v.1.15,2013-02-03 01:40:00,
2013-02-02 20:45:00,23.2,21.2,29.97,SSW,203,3.0,-999.0,92,0.00,,,0.00,Wunderground v.1.15,2013-02-03 01:45:00,
2013-02-02 20:50:00,23.2,21.2,29.97,SSW,203,2.0,-999.0,92,0.00,,,0.00,Wunderground v.1.15,2013-02-03 01:50:00,
2013-02-02 21:02:00,23.3,21.3,29.97,SSW,203,2.0,-999.0,92,0.00,,,0.00,Wunderground v.1.15,2013-02-03 02:02:00,
2013-02-02 21:10:00,23.3,21.3,29.96,SSW,211,2.0,2.0,92,0.00,,,0.00,Wunderground v.1.15,2013-02-03 02:10:00,
2013-02-02 21:20:00,23.2,21.0,29.96,South,188,2.0,2.0,91,0.00,,,0.00,Wunderground v.1.15,2013-02-03 02:20:00,
2013-02-02 21:25:00,23.1,20.9,29.96,South,188,2.0,2.0,91,0.00,,,0.00,Wunderground v.1.15,2013-02-03 02:25:00,
2013-02-02 21:30:00,23.1,21.1,29.96,SSW,197,2.0,2.0,92,0.00,,,0.00,Wunderground v.1.15,2013-02-03 02:30:00,
2013-02-02 21:35:00,23.1,21.1,29.96,SSW,198,2.0,2.0,92,0.00,,,0.00,Wunderground v.1.15,2013-02-03 02:35:00,
2013-02-02 21:40:00,23.0,20.8,29.96,South,190,2.0,2.0,91,0.00,,,0.00,Wunderground v.1.15,2013-02-03 02:40:00,
2013-02-02 21:45:00,23.0,21.0,29.96,SSE,165,2.0,2.0,92,0.00,,,0.00,Wunderground v.1.15,2013-02-03 02:45:00,
2013-02-02 21:55:00,22.9,20.9,29.96,South,188,1.0,2.0,92,0.00,,,0.00,Wunderground v.1.15,2013-02-03 02:55:00,
2013-02-02 22:00:00,22.9,20.9,29.96,SSE,159,1.0,2.0,92,0.00,,,0.00,Wunderground v.1.15,2013-02-03 03:00:00,
2013-02-02 22:10:00,22.9,20.9,29.96,SSE,162,0.0,0.0,92,0.00,,,0.00,Wunderground v.1.15,2013-02-03 03:10:00,
2013-02-02 22:15:00,22.9,20.9,29.96,SSE,162,0.0,0.0,92,0.00,,,0.00,Wunderground v.1.15,2013-02-03 03:15:00,
2013-02-02 22:20:00,22.8,20.8,29.96,SSE,162,0.0,0.0,92,0.00,,,0.00,Wunderground v.1.15,2013-02-03 03:20:00,
2013-02-02 22:30:00,22.9,20.9,29.96,SSE,165,0.0,0.0,92,0.00,,,0.00,Wunderground v.1.15,2013-02-03 03:30:00,
2013-02-02 22:35:00,23.0,21.0,29.96,SSW,203,0.0,0.0,92,0.00,,,0.00,Wunderground v.1.15,2013-02-03 03:35:00,
2013-02-02 22:45:00,23.1,21.1,29.96,SSW,193,0.0,0.0,92,0.00,,,0.00,Wunderground v.1.15,2013-02-03 03:45:00,
2013-02-02 22:50:00,23.2,21.2,29.96,South,190,1.0,2.0,92,0.00,,,0.00,Wunderground v.1.15,2013-02-03 03:50:00,
2013-02-02 22:55:00,23.2,21.2,29.96,SSW,208,1.0,2.0,92,0.00,,,0.00,Wunderground v.1.15,2013-02-03 03:55:00,
2013-02-02 23:00:00,23.3,21.3,29.95,South,184,1.0,1.0,92,0.00,,,0.00,Wunderground v.1.15,2013-02-03 04:00:00,
2013-02-02 23:10:00,23.4,21.4,29.95,SW,234,0.0,0.0,92,0.00,,,0.00,Wunderground v.1.15,2013-02-03 04:10:00,
2013-02-02 23:15:00,23.4,21.4,29.95,SSW,201,1.0,1.0,92,0.00,,,0.00,Wunderground v.1.15,2013-02-03 04:15:00,
2013-02-02 23:25:00,23.5,21.5,29.95,SSW,203,1.0,1.0,92,0.00,,,0.00,Wunderground v.1.15,2013-02-03 04:25:00,
2013-02-02 23:30:00,23.5,21.5,29.95,SSW,204,1.0,1.0,92,0.00,,,0.00,Wunderground v.1.15,2013-02-03 04:30:00,
2013-02-02 23:40:00,23.5,21.5,29.95,South,190,1.0,2.0,92,0.00,,,0.00,Wunderground v.1.15,2013-02-03 04:40:00,
2013-02-02 23:50:00,23.6,21.6,29.95,SSW,208,2.0,2.0,92,0.00,,,0.00,Wunderground v.1.15,2013-02-03 04:50:00,